When you browse on this site, cookies collect data to enhance your experience and personalize the content and advertising you see.
Visit our Privacy Policy to learn more. By continuing to use the site, you agree to this use of cookies and data.
  • In Portugal
  • List of Countries
  • For 7 days
  • Water Temperature
  • Satellite Maps
  • Weather Map
  • Weather Widgets
  • user-avatar
    Login

    Hourly Weather Corozal

    Today, 11 December, Tuesday

    Time Temperature Precipitation Wind Pressure Humidity
    00:00 +20°C° 0 mm 4 mps 766 mmHg 80%
    01:00 +20°C° 0 mm 3 mps 766 mmHg 82%
    02:00 +19°C° 0 mm 3 mps 766 mmHg 84%
    03:00 +19°C° 0 mm 3 mps 766 mmHg 86%
    04:00 +18°C° 0 mm 3 mps 766 mmHg 88%
    05:00 +18°C° 0 mm 3 mps 766 mmHg 89%
    06:00 +18°C° 0 mm 3 mps 766 mmHg 91%
    07:00 +19°C° 0 mm 3 mps 767 mmHg 83%
    08:00 +21°C° 0 mm 4 mps 767 mmHg 75%
    09:00 +23°C° 0 mm 4 mps 767 mmHg 67%
    10:00 +25°C° 0 mm 4 mps 767 mmHg 63%
    11:00 +26°C° 0 mm 4 mps 767 mmHg 58%
    12:00 +27°C° 0 mm 3 mps 766 mmHg 54%
    13:00 +27°C° 0 mm 3 mps 766 mmHg 54%
    14:00 +27°C° 0 mm 3 mps 765 mmHg 53%
    15:00 +27°C° 0 mm 3 mps 765 mmHg 53%
    16:00 +26°C° 0 mm 3 mps 765 mmHg 58%
    17:00 +24°C° 0 mm 3 mps 765 mmHg 63%
    18:00 +23°C° 0 mm 2 mps 765 mmHg 68%
    19:00 +21°C° 0 mm 3 mps 765 mmHg 70%
    20:00 +20°C° 0 mm 3 mps 766 mmHg 73%
    21:00 +19°C° 0 mm 3 mps 766 mmHg 76%
    22:00 +19°C° 0 mm 3 mps 766 mmHg 78%
    23:00 +18°C° 0 mm 2 mps 766 mmHg 80%

    Tomorrow, 12 December, Wednesday

    Time Temperature Precipitation Wind Pressure Humidity
    00:00 +18°C° 0 mm 2 mps 766 mmHg 82%
    01:00 +17°C° 0 mm 2 mps 765 mmHg 83%
    02:00 +17°C° 0 mm 2 mps 765 mmHg 84%
    03:00 +16°C° 0 mm 2 mps 765 mmHg 85%
    04:00 +16°C° 0 mm 2 mps 765 mmHg 85%
    05:00 +16°C° 0 mm 2 mps 765 mmHg 86%
    06:00 +16°C° 0 mm 2 mps 765 mmHg 86%
    07:00 +18°C° 0 mm 2 mps 765 mmHg 79%
    08:00 +20°C° 0 mm 2 mps 765 mmHg 73%
    09:00 +23°C° 0 mm 2 mps 765 mmHg 66%
    10:00 +25°C° 0 mm 2 mps 765 mmHg 62%
    11:00 +27°C° 0 mm 2 mps 764 mmHg 57%
    12:00 +28°C° 0 mm 2 mps 764 mmHg 53%
    13:00 +28°C° 0 mm 2 mps 763 mmHg 53%
    14:00 +28°C° 0 mm 2 mps 762 mmHg 53%
    15:00 +29°C° 0 mm 2 mps 761 mmHg 53%
    16:00 +27°C° 0 mm 2 mps 761 mmHg 61%
    17:00 +25°C° 0 mm 2 mps 761 mmHg 69%
    18:00 +23°C° 0 mm 2 mps 762 mmHg 77%
    19:00 +23°C° 0 mm 2 mps 762 mmHg 81%
    20:00 +21°C° 0 mm 2 mps 762 mmHg 84%
    21:00 +21°C° 0 mm 2 mps 762 mmHg 87%
    22:00 +20°C° 0 mm 2 mps 762 mmHg 89%
    23:00 +20°C° 0 mm 2 mps 762 mmHg 90%

    Day after tomorrow, 13 December, Thursday

    Time Temperature Precipitation Wind Pressure Humidity
    00:00 +20°C° 0 mm 2 mps 762 mmHg 92%
    01:00 +21°C° 0 mm 1 mps 761 mmHg 93%
    02:00 +21°C° 0 mm 1 mps 761 mmHg 93%
    03:00 +21°C° 0 mm 1 mps 760 mmHg 93%
    04:00 +21°C° 0 mm 1 mps 760 mmHg 94%
    05:00 +21°C° 0 mm 1 mps 760 mmHg 95%
    06:00 +21°C° 0 mm 1 mps 760 mmHg 95%
    07:00 +22°C° 0 mm 1 mps 761 mmHg 90%
    08:00 +24°C° 0 mm 1 mps 761 mmHg 85%
    09:00 +26°C° 0 mm 1 mps 761 mmHg 79%
    10:00 +27°C° 0 mm 2 mps 761 mmHg 77%
    11:00 +29°C° 0 mm 2 mps 760 mmHg 74%
    12:00 +30°C° 0 mm 2 mps 760 mmHg 71%
    13:00 +30°C° 0 mm 2 mps 759 mmHg 69%
    14:00 +31°C° 0 mm 2 mps 758 mmHg 67%
    15:00 +31°C° 0 mm 2 mps 758 mmHg 66%
    16:00 +29°C° 0 mm 2 mps 758 mmHg 73%
    17:00 +28°C° 0 mm 1 mps 758 mmHg 81%
    18:00 +26°C° 0 mm 1 mps 758 mmHg 89%
    19:00 +26°C° 0 mm 1 mps 759 mmHg 90%
    20:00 +26°C° 0 mm 2 mps 759 mmHg 91%
    21:00 +25°C° 0 mm 2 mps 760 mmHg 92%
    22:00 +25°C° 0 mm 2 mps 760 mmHg 93%
    23:00 +25°C° 0 mm 2 mps 759 mmHg 95%

    14 December, Friday

    Time Temperature Precipitation Wind Pressure Humidity
    00:00 +24°C° 0 mm 1 mps 759 mmHg 96%
    01:00 +24°C° 0 mm 1 mps 759 mmHg 96%
    02:00 +24°C° 0 mm 1 mps 759 mmHg 97%
    03:00 +24°C° 0 mm 1 mps 759 mmHg 98%
    04:00 +24°C° 0.3 mm 1 mps 759 mmHg 98%
    05:00 +23°C° 0.3 mm 1 mps 760 mmHg 98%
    06:00 +23°C° 0.3 mm 1 mps 760 mmHg 99%
    07:00 +24°C° 1.4 mm 1 mps 761 mmHg 97%
    08:00 +25°C° 1.4 mm 2 mps 761 mmHg 96%
    09:00 +26°C° 1.4 mm 2 mps 762 mmHg 94%
    10:00 +27°C° 1.1 mm 2 mps 762 mmHg 88%
    11:00 +28°C° 1.1 mm 2 mps 762 mmHg 83%
    12:00 +30°C° 1.1 mm 2 mps 761 mmHg 77%
    13:00 +29°C° 1 mm 3 mps 761 mmHg 80%
    14:00 +28°C° 1 mm 3 mps 761 mmHg 84%
    15:00 +27°C° 1 mm 4 mps 760 mmHg 88%
    16:00 +26°C° 0.5 mm 4 mps 761 mmHg 89%
    17:00 +23°C° 0.5 mm 4 mps 761 mmHg 90%
    18:00 +22°C° 0.5 mm 3 mps 762 mmHg 91%
    19:00 +22°C° 0 mm 3 mps 763 mmHg 90%
    20:00 +21°C° 0 mm 3 mps 764 mmHg 88%
    21:00 +21°C° 0 mm 3 mps 764 mmHg 87%
    22:00 +20°C° 0 mm 3 mps 764 mmHg 84%
    23:00 +20°C° 0 mm 3 mps 764 mmHg 82%

    15 December, Saturday

    Time Temperature Precipitation Wind Pressure Humidity
    00:00 +20°C° 0 mm 3 mps 764 mmHg 79%
    01:00 +19°C° 0 mm 3 mps 764 mmHg 79%
    02:00 +19°C° 0 mm 3 mps 764 mmHg 78%
    03:00 +18°C° 0 mm 3 mps 764 mmHg 78%
    04:00 +18°C° 0 mm 3 mps 765 mmHg 80%
    05:00 +17°C° 0 mm 3 mps 765 mmHg 82%
    06:00 +17°C° 0 mm 3 mps 765 mmHg 84%
    07:00 +18°C° 0 mm 3 mps 766 mmHg 77%
    08:00 +20°C° 0 mm 3 mps 766 mmHg 70%
    09:00 +22°C° 0 mm 4 mps 767 mmHg 63%
    10:00 +24°C° 0 mm 3 mps 766 mmHg 59%
    11:00 +25°C° 0 mm 3 mps 766 mmHg 55%
    12:00 +27°C° 0 mm 3 mps 765 mmHg 50%
    13:00 +27°C° 0 mm 3 mps 765 mmHg 49%
    14:00 +27°C° 0 mm 2 mps 764 mmHg 48%
    15:00 +28°C° 0 mm 2 mps 763 mmHg 47%
    16:00 +26°C° 0 mm 2 mps 764 mmHg 53%
    17:00 +24°C° 0 mm 1 mps 764 mmHg 60%
    18:00 +22°C° 0 mm 1 mps 765 mmHg 67%
    19:00 +22°C° 0 mm 1 mps 765 mmHg 70%
    20:00 +21°C° 0 mm 1 mps 765 mmHg 72%
    21:00 +20°C° 0 mm 1 mps 766 mmHg 75%
    22:00 +20°C° 0 mm 1 mps 766 mmHg 77%
    23:00 +19°C° 0 mm 2 mps 766 mmHg 79%

    16 December, Sunday

    Time Temperature Precipitation Wind Pressure Humidity
    00:00 +18°C° 0 mm 2 mps 765 mmHg 81%
    01:00 +18°C° 0 mm 2 mps 765 mmHg 83%
    02:00 +17°C° 0 mm 2 mps 765 mmHg 85%
    03:00 +17°C° 0 mm 2 mps 765 mmHg 86%
    04:00 +17°C° 0 mm 2 mps 765 mmHg 87%
    05:00 +16°C° 0 mm 2 mps 766 mmHg 88%
    06:00 +16°C° 0 mm 2 mps 766 mmHg 89%
    07:00 +18°C° 0 mm 2 mps 766 mmHg 81%
    08:00 +20°C° 0 mm 2 mps 767 mmHg 74%
    09:00 +23°C° 0 mm 2 mps 767 mmHg 67%
    10:00 +25°C° 0 mm 2 mps 766 mmHg 61%
    11:00 +26°C° 0 mm 2 mps 766 mmHg 56%
    12:00 +28°C° 0 mm 2 mps 765 mmHg 50%
    13:00 +28°C° 0 mm 2 mps 764 mmHg 50%
    14:00 +28°C° 0 mm 2 mps 764 mmHg 50%
    15:00 +28°C° 0 mm 2 mps 763 mmHg 50%
    16:00 +27°C° 0 mm 2 mps 764 mmHg 57%
    17:00 +25°C° 0 mm 2 mps 764 mmHg 63%
    18:00 +23°C° 0 mm 1 mps 764 mmHg 70%
    19:00 +23°C° 0 mm 1 mps 764 mmHg 72%
    20:00 +22°C° 0 mm 1 mps 765 mmHg 73%
    21:00 +22°C° 0 mm 1 mps 765 mmHg 75%
    22:00 +20°C° 0 mm 2 mps 765 mmHg 77%
    23:00 +20°C° 0 mm 2 mps 765 mmHg 79%
    Show more